Location: Veytaux
(46.4185°N, 6.9320°E)
Time: 12:41:22
(UTC+00:00)

IDEFIX/ARIANE 42P - Visible Passes

Search period start: 26 September 2022 00:00
Search period end: 06 October 2022 00:00
Orbit: 785 x 801 km, 98.5° (Epoch: 25 September)

Date Brightness Start Highest point End Pass type
(mag) Time Alt. Az. Time Alt. Az. Time Alt. Az.
26 Sep 4.4 01:21:26 10° NNE 01:24:01 28° NE 01:24:01 28° NE visible
26 Sep 4.0 03:01:35 10° N 03:04:48 24° NW 03:04:48 24° NW visible
27 Sep 5.0 00:53:19 10° NE 00:55:03 18° NE 00:55:03 18° NE visible
27 Sep 3.8 02:32:37 10° N 02:35:50 32° NNW 02:35:50 32° NNW visible
28 Sep 5.4 00:25:44 10° NE 00:26:05 11° NE 00:26:05 11° NE visible
28 Sep 3.9 02:03:54 10° N 02:06:52 34° N 02:06:52 34° N visible
28 Sep 4.6 03:45:45 10° NNW 03:47:39 12° NW 03:47:39 12° NW visible
29 Sep 4.3 01:35:23 10° NNE 01:37:54 28° NNE 01:37:54 28° NNE visible
29 Sep 4.2 03:15:58 10° NNW 03:18:41 19° NW 03:18:41 19° NW visible
30 Sep 4.9 01:07:07 10° NNE 01:08:56 20° NE 01:08:56 20° NE visible
30 Sep 4.0 02:46:51 10° N 02:49:43 26° NNW 02:49:43 26° NNW visible
01 Oct 5.3 00:39:13 10° NE 00:39:58 13° NE 00:39:58 13° NE visible
01 Oct 4.0 02:18:01 10° N 02:20:45 30° N 02:20:45 30° N visible
02 Oct 4.3 01:49:24 10° NNE 01:51:46 27° NNE 01:51:46 27° NNE visible
02 Oct 4.5 03:30:30 10° NNW 03:32:35 15° NW 03:32:35 15° NW visible
03 Oct 4.8 01:21:00 10° NNE 01:22:49 21° NNE 01:22:49 21° NNE visible
03 Oct 4.2 03:01:09 10° N 03:03:36 21° NNW 03:03:36 21° NNW visible
04 Oct 5.3 00:52:53 10° NE 00:53:51 14° NE 00:53:51 14° NE visible
04 Oct 4.2 02:32:11 10° N 02:34:38 26° NNW 02:34:38 26° NNW visible
05 Oct 4.4 02:03:28 10° N 02:05:40 26° N 02:05:40 26° N visible
05 Oct 4.7 03:45:18 10° NNW 03:46:27 12° NW 03:46:27 12° NW visible
